[[{"header":{"parameterUnit":"m.s-1","parameterCategory":1,"la1":30.2991,"la2":30.254,"lo1":-89.0895,"lo2":-89.0444,"dy":0.0017,"dx":0.0017,"nx":28,"ny":28,"refTime":"2025-01-22T03:00:00:Z","depth":0,"parameterNumber":2,"parameterNumberName":"U-component_of_WINDS"},"data":[0,0,0,0,0,0,0,0,0,0,0,0,0,0,0,0,0,0,0,0,0,0,0,0,0,0,0,0,0,0,0,0,0,0,0,0,0,0,0,0,0,0,0,0,0,0,0,0,0,0,0,0,0,0,0,0,0,0,-1.3694,-1.3695,0,-1.3759,-1.376,-1.3761,-1.37,-1.3698,-1.3696,-1.3693,-1.3761,-1.3765,-1.3769,0,0,0,0,0,0,0,0,0,0,0,0,0,-1.3515,-1.3519,-1.3694,-1.3695,-1.3696,-1.3759,-1.376,-1.3761,-1.3701,-1.3698,-1.3695,-1.3692,-1.3759,-1.3764,-1.3769,0,0,0,0,0,0,0,0,0,0,0,0,0,-1.3588,-1.352,-1.3694,-1.3673,-1.3672,-1.3759,-1.376,-1.3761,-1.3701,-1.3698,-1.3694,-1.3691,-1.3758,-1.3764,-1.377,-1.3881,0,0,-1.3788,-1.3791,0,0,0,0,0,0,0,0,-1.3584,-1.3595,-1.3675,-1.3675,-1.3674,-1.3718,-1.3722,-1.3801,-1.3702,-1.369,-1.3693,-1.3689,-1.375,-1.3756,-1.3776,-1.3884,-1.3887,-1.3789,-1.3793,-1.3795,-1.3797,0,0,0,0,0,0,0,-1.3579,-1.3592,-1.372,-1.3677,-1.3676,-1.366,-1.3666,-1.3737,-1.374,-1.3691,-1.3687,-1.3695,-1.3748,-1.3771,-1.3778,-1.3888,-1.3789,-1.3794,-1.3798,-1.38,-1.4087,-1.4091,0,0,0,0,0,0,-1.3576,-1.3588,-1.3718,-1.3722,-1.3619,-1.3666,-1.3673,-1.3707,-1.3739,-1.374,-1.3698,-1.3692,-1.3762,-1.3771,-1.378,-1.3911,-1.3795,-1.3801,-1.3805,-1.4084,-1.4088,-1.4093,0,0,0,0,0,0,-1.3573,-1.3589,-1.3715,-1.3654,-1.3669,-1.3673,-1.3712,-1.3711,-1.3733,-1.3744,-1.3744,-1.3721,-1.3759,-1.3771,-1.3856,-1.3913,-1.3804,-1.3809,-1.4079,-1.4085,-1.409,-1.4175,0,0,0,0,0,0,-1.3568,-1.3588,-1.3631,-1.3655,-1.3672,-1.3791,-1.3716,-1.3715,-1.3744,-1.3736,-1.3765,-1.3767,-1.3758,-1.3847,-1.3862,-1.3919,-1.3814,-1.4074,-1.4082,-1.4089,-1.4168,-1.4184,-1.4197,0,0,0,0,0,-1.3562,-1.3652,-1.3633,-1.3649,-1.3726,-1.3794,-1.3804,-1.3792,-1.3749,-1.3791,-1.3798,-1.3766,-1.3903,-1.3856,-1.3872,-1.3932,-1.407,-1.4079,-1.4088,-1.4161,-1.418,-1.4197,0,0,0,0,0,0,-1.3636,-1.3655,-1.3634,-1.3736,-1.3764,-1.3784,-1.3838,-1.3813,-1.3854,-1.3845,-1.3828,-1.3835,-1.3924,-1.3936,-1.3883,-1.404,-1.398,-1.3992,-1.403,-1.4048,-1.4063,-1.4059,-1.3819,0,0,0,0,0,-1.3663,-1.3718,-1.3732,-1.382,-1.3835,-1.3834,-1.3863,-1.3851,-1.3879,-1.3891,-1.3904,-1.3933,-1.3982,-1.4015,-1.4062,-1.4168,-1.4173,-1.4217,-1.4232,-1.4244,-1.4256,-1.4311,-1.4331,-1.4122,-1.4122,-1.4122,0,0,-1.3722,-1.374,-1.3775,-1.3835,-1.3855,-1.3911,-1.3845,-1.3907,-1.3948,-1.3901,-1.3981,-1.3991,-1.4022,-1.4118,-1.416,-1.4131,-1.4314,-1.4255,-1.4265,-1.427,-1.4322,-1.4342,-1.436,-1.4128,-1.4127,-1.4126,0,0,-1.3858,-1.3877,-1.3952,-1.3973,-1.4003,-1.4002,-1.402,-1.4043,-1.4048,-1.4128,-1.4093,-1.4141,-1.4227,-1.425,-1.4273,-1.4414,-1.4385,-1.4429,-1.4507,-1.4562,-1.4578,-1.4593,-1.4643,-1.4661,-1.444,-1.444,-1.444,0,-1.3927,-1.4011,-1.3993,-1.4058,-1.4085,-1.4042,-1.4118,-1.4139,-1.4184,-1.4203,-1.4168,-1.4274,-1.4291,-1.4391,-1.4425,-1.4445,-1.4465,-1.4427,-1.4577,-1.4592,-1.4605,-1.4653,-1.4671,-1.4445,-1.4445,-1.4444,-1.4444,0,-1.4094,-1.4152,-1.4209,-1.4252,-1.4285,-1.4355,-1.4347,-1.4382,-1.4366,-1.4367,-1.4448,-1.4468,-1.4516,-1.4538,-1.4524,-1.4636,-1.4616,-1.458,-1.4519,-1.463,-1.4675,-1.4693,-1.4453,-1.4451,-1.4449,-1.4448,0,0,-1.4282,-1.4312,-1.4334,-1.4352,-1.4381,-1.4426,-1.4492,-1.4539,-1.457,-1.46,-1.4656,-1.4728,-1.4693,-1.4719,-1.4706,-1.4754,-1.4863,-1.4711,-1.4711,-1.4739,-1.4987,-1.5016,-1.5037,-1.4843,-1.4847,-1.4849,-1.4985,0,-1.4419,-1.4536,-1.452,-1.4632,-1.4684,-1.4643,-1.4701,-1.4725,-1.4727,-1.4771,-1.4773,-1.4825,-1.4775,-1.4791,-1.4836,-1.4841,-1.4913,-1.483,-1.4895,-1.4897,-1.489,-1.506,-1.5091,-1.5218,-1.5002,-1.5005,-1.5007,0,-1.4596,-1.4633,-1.4749,-1.4768,-1.479,-1.4842,-1.4883,-1.4926,-1.4951,-1.4949,-1.4977,-1.4954,-1.5019,-1.4955,-1.5045,-1.4989,-1.5014,-1.5019,-1.5024,-1.5031,-1.4961,-1.5073,-1.5259,-1.5278,-1.5034,-1.5032,-1.503,0,-1.4722,-1.48,-1.4879,-1.4896,-1.4921,-1.4958,-1.497,-1.4991,-1.502,-1.5055,-1.5073,-1.5115,-1.5138,-1.5171,-1.516,-1.5114,-1.5252,-1.5187,-1.5252,-1.5252,-1.5285,-1.5283,-1.5478,-1.5298,-1.5298,-1.5298,-1.5297,0,-1.4878,-1.4951,-1.4936,-1.4986,-1.5065,-1.5046,-1.5125,-1.5131,-1.515,-1.5199,-1.5165,-1.5212,-1.5193,-1.5238,-1.5229,-1.5304,-1.5315,-1.5315,-1.5312,-1.5319,-1.5319,-1.5337,-1.5328,-1.5303,-1.5302,-1.5301,-1.53,0,-1.5034,-1.5027,-1.5111,-1.5125,-1.5131,-1.5189,-1.5202,-1.5247,-1.5245,-1.5307,-1.5321,-1.5318,-1.5369,-1.536,-1.5416,-1.541,-1.5504,-1.549,-1.5496,-1.5493,-1.5559,-1.5553,-1.5773,-1.5801,-1.5602,-1.5604,-1.5606,0,-1.5135,-1.519,-1.521,-1.524,-1.5254,-1.5304,-1.5332,-1.5313,-1.5344,-1.5375,-1.5417,-1.5464,-1.5501,-1.5584,-1.5587,-1.5629,-1.5616,-1.569,-1.5623,-1.5627,-1.5618,-1.5616,-1.5621,-1.5704,-1.5707,-1.5709,-1.571,0,-1.5315,-1.5308,-1.535,-1.539,-1.5425,-1.5456,-1.5483,-1.551,-1.5493,-1.5529,-1.558,-1.5609,-1.5665,-1.5713,-1.5752,-1.5763,-1.5734,-1.5731,-1.5748,-1.5757,-1.5758,-1.5759,-1.5534,-1.5726,-1.5725,-1.5724,-1.5723,-1.5722,-1.5447,-1.5493,-1.5514,-1.5562,-1.558,-1.5606,-1.5649,-1.5651,-1.5694,-1.5738,-1.5724,-1.5782,-1.5803,-1.5852,-1.5867,-1.5912,-1.5884,-1.5909,-1.5916,-1.5923,-1.5931,-1.575,-1.5918,-1.5918,-1.5917,-1.5917,-1.5917,0,-1.5626,-1.5636,-1.568,-1.5719,-1.5756,-1.5723,-1.5751,-1.5784,-1.5836,-1.5858,-1.5894,-1.5952,-1.5997,-1.6002,-1.6044,-1.6078,-1.6066,-1.609,-1.6088,-1.6091,-1.5953,-1.5934,-1.6099,-1.6099,-1.6099,-1.6099,-1.6099,-1.6099,-1.5724,-1.58,-1.5795,-1.5879,-1.5889,-1.5945,-1.5964,-1.5987,-1.6004,-1.607,-1.6107,-1.6109,-1.6124,-1.6166,-1.6206,-1.6206,-1.6223,-1.6253,-1.6248,-1.6119,-1.6101,-1.6084,-1.6066,-1.6256,-1.6257,-1.6382,-1.6384,-1.6384]},{"header":{"parameterUnit":"m.s-1","parameterCategory":1,"la1":30.2991,"la2":30.254,"lo1":-89.0895,"lo2":-89.0444,"dy":0.0017,"dx":0.0017,"nx":28,"ny":28,"refTime":"2025-01-22T03:00:00:Z","depth":0,"parameterNumber":3,"parameterNumberName":"V-component_of_WINDS"},"data":[0,0,0,0,0,0,0,0,0,0,0,0,0,0,0,0,0,0,0,0,0,0,0,0,0,0,0,0,0,0,0,0,0,0,0,0,0,0,0,0,0,0,0,0,0,0,0,0,0,0,0,0,0,0,0,0,0,0,-7.3048,-7.305,0,-7.3238,-7.324,-7.3242,-7.315,-7.3145,-7.3141,-7.3136,-7.3324,-7.3333,-7.3342,0,0,0,0,0,0,0,0,0,0,0,0,0,-7.2597,-7.2605,-7.3048,-7.305,-7.3052,-7.3238,-7.324,-7.3243,-7.3151,-7.3145,-7.3139,-7.3134,-7.3321,-7.3332,-7.3343,0,0,0,0,0,0,0,0,0,0,0,0,0,-7.279,-7.2608,-7.3047,-7.3029,-7.3029,-7.3237,-7.324,-7.3243,-7.3152,-7.3145,-7.3138,-7.3131,-7.3317,-7.3331,-7.3345,-7.3579,0,0,-7.3389,-7.3395,0,0,0,0,0,0,0,0,-7.2779,-7.2807,-7.3029,-7.3031,-7.3032,-7.3163,-7.315,-7.3356,-7.3154,-7.3106,-7.3136,-7.3127,-7.3276,-7.3293,-7.3344,-7.3588,-7.3596,-7.339,-7.3398,-7.3405,-7.3409,0,0,0,0,0,0,0,-7.2766,-7.2798,-7.3123,-7.3033,-7.3034,-7.3009,-7.3028,-7.3188,-7.3229,-7.3109,-7.3103,-7.3127,-7.3275,-7.3331,-7.3348,-7.3599,-7.3389,-7.3402,-7.3411,-7.3417,-7.404,-7.4048,0,0,0,0,0,0,-7.2754,-7.2788,-7.3117,-7.3128,-7.2885,-7.3023,-7.3045,-7.3128,-7.3227,-7.3235,-7.3133,-7.3122,-7.331,-7.3332,-7.3354,-7.3633,-7.3405,-7.3418,-7.3426,-7.4032,-7.4042,-7.4051,0,0,0,0,0,0,-7.2745,-7.2785,-7.3109,-7.2956,-7.2996,-7.3038,-7.3133,-7.3136,-7.3192,-7.3245,-7.3251,-7.3184,-7.3305,-7.3334,-7.3524,-7.3639,-7.3424,-7.3437,-7.4023,-7.4035,-7.4046,-7.4195,0,0,0,0,0,0,-7.2733,-7.2782,-7.2874,-7.2959,-7.3004,-7.3278,-7.314,-7.3145,-7.3217,-7.3205,-7.3294,-7.3302,-7.3302,-7.3503,-7.3538,-7.3654,-7.3449,-7.4013,-7.4029,-7.4043,-7.418,-7.421,-7.4236,0,0,0,0,0,-7.2717,-7.2907,-7.2879,-7.2919,-7.312,-7.3285,-7.3311,-7.3309,-7.3227,-7.3318,-7.3352,-7.3299,-7.3621,-7.3523,-7.3562,-7.3684,-7.4006,-7.4024,-7.4042,-7.4167,-7.4204,-7.4236,0,0,0,0,0,0,-7.2831,-7.2918,-7.2887,-7.3111,-7.3192,-7.3269,-7.3384,-7.3348,-7.3452,-7.3436,-7.3426,-7.3447,-7.3643,-7.3682,-7.3572,-7.3914,-7.38,-7.3827,-7.3882,-7.3918,-7.3946,-7.3932,-7.346,0,0,0,0,0,-7.2883,-7.3012,-7.3079,-7.327,-7.3312,-7.3342,-7.3413,-7.3405,-7.3487,-7.352,-7.3568,-7.3647,-7.3765,-7.3844,-7.3956,-7.4185,-7.4201,-7.4288,-7.4316,-7.4339,-7.4362,-7.4483,-7.4521,-7.411,-7.411,-7.4109,0,0,-7.299,-7.3053,-7.3135,-7.3295,-7.3356,-7.3488,-7.3371,-7.3515,-7.3612,-7.3541,-7.3723,-7.3761,-7.3848,-7.4058,-7.4153,-7.4097,-7.4479,-7.4362,-7.438,-7.439,-7.4505,-7.4544,-7.4579,-7.4122,-7.412,-7.4118,0,0,-7.3253,-7.3315,-7.348,-7.3544,-7.3639,-7.3657,-7.3696,-7.378,-7.3802,-7.3986,-7.3934,-7.4047,-7.4253,-7.4317,-7.4376,-7.4661,-7.4615,-7.4698,-7.4845,-7.4964,-7.4996,-7.5025,-7.5125,-7.5161,-7.472,-7.4721,-7.4721,0,-7.3374,-7.3573,-7.3569,-7.3717,-7.3788,-7.3731,-7.3896,-7.3958,-7.4084,-7.4132,-7.4068,-7.4323,-7.4378,-7.4601,-7.4671,-7.4721,-7.4764,-7.4687,-7.4992,-7.5021,-7.5048,-7.5143,-7.5181,-7.473,-7.4729,-7.4728,-7.4727,0,-7.3715,-7.3854,-7.3975,-7.41,-7.4184,-7.434,-7.4357,-7.4442,-7.4425,-7.4449,-7.4634,-7.4698,-7.4822,-7.4874,-7.4859,-7.5094,-7.5056,-7.4993,-7.4877,-7.5096,-7.5185,-7.5222,-7.4743,-7.474,-7.4737,-7.4735,0,0,-7.4057,-7.4177,-7.4221,-7.4276,-7.4376,-7.4481,-7.4633,-7.4756,-7.4828,-7.4916,-7.5041,-7.5215,-7.5157,-7.5224,-7.5215,-7.532,-7.5539,-7.5243,-7.5245,-7.5294,-7.5799,-7.5846,-7.5889,-7.5509,-7.5516,-7.5522,-7.5791,0,-7.4325,-7.4595,-7.4594,-7.4841,-7.4967,-7.4914,-7.5046,-7.512,-7.5146,-7.5254,-7.528,-7.5404,-7.5318,-7.5358,-7.5459,-7.5491,-7.564,-7.5472,-7.5623,-7.5629,-7.5602,-7.5935,-7.5986,-7.6237,-7.5826,-7.5832,-7.5837,0,-7.4676,-7.4777,-7.5037,-7.5117,-7.5169,-7.5289,-7.5399,-7.5505,-7.5586,-7.5597,-7.5672,-7.5646,-7.5797,-7.5678,-7.5885,-7.577,-7.5832,-7.5856,-7.5866,-7.5879,-7.5746,-7.5956,-7.6318,-7.6355,-7.5892,-7.5887,-7.5883,0,-7.4897,-7.5098,-7.5279,-7.5328,-7.5425,-7.551,-7.5554,-7.5628,-7.5701,-7.5797,-7.5844,-7.5956,-7.6017,-7.6102,-7.6106,-7.602,-7.6314,-7.6196,-7.6325,-7.6325,-7.6389,-7.6385,-7.6765,-7.6431,-7.643,-7.643,-7.6429,0,-7.5196,-7.5357,-7.5379,-7.5491,-7.5668,-7.5665,-7.5839,-7.5875,-7.5942,-7.6057,-7.6017,-7.6125,-7.6125,-7.6234,-7.6238,-7.6407,-7.6435,-7.6446,-7.6445,-7.645,-7.6448,-7.6489,-7.6471,-7.644,-7.6438,-7.6436,-7.6434,0,-7.5473,-7.5495,-7.5689,-7.5765,-7.5788,-7.5916,-7.598,-7.6084,-7.6105,-7.6251,-7.6285,-7.6318,-7.6445,-7.6458,-7.6604,-7.6607,-7.6811,-7.6791,-7.6784,-7.6781,-7.6909,-7.6896,-7.7328,-7.7383,-7.7014,-7.7018,-7.7021,0,-7.5663,-7.5786,-7.5876,-7.5951,-7.6,-7.6122,-7.6197,-7.6197,-7.6275,-7.6376,-7.6468,-7.6591,-7.669,-7.6894,-7.6929,-7.704,-7.7022,-7.7165,-7.7038,-7.7038,-7.7022,-7.7015,-7.7026,-7.719,-7.7194,-7.7197,-7.72,0,-7.5997,-7.6001,-7.6111,-7.6226,-7.6316,-7.6405,-7.6488,-7.6552,-7.6561,-7.6651,-7.6781,-7.6858,-7.7008,-7.713,-7.7239,-7.728,-7.7242,-7.724,-7.7275,-7.7281,-7.7271,-7.7276,-7.685,-7.723,-7.7227,-7.7224,-7.7223,-7.7222,-7.6235,-7.6341,-7.6421,-7.6544,-7.6607,-7.6685,-7.6787,-7.6821,-7.6931,-7.7054,-7.7047,-7.719,-7.7265,-7.7408,-7.7458,-7.7567,-7.7519,-7.7571,-7.7584,-7.7596,-7.7609,-7.7255,-7.7587,-7.7586,-7.7585,-7.7585,-7.7584,0,-7.6565,-7.6614,-7.6728,-7.6846,-7.6943,-7.69,-7.6989,-7.7072,-7.7199,-7.7273,-7.7371,-7.7519,-7.7636,-7.7681,-7.7794,-7.7873,-7.7858,-7.7903,-7.7897,-7.7907,-7.7646,-7.7604,-7.7914,-7.7913,-7.7913,-7.7913,-7.7913,-7.7913,-7.6749,-7.6925,-7.6938,-7.7144,-7.719,-7.7332,-7.7387,-7.7458,-7.7517,-7.7685,-7.7783,-7.7812,-7.7873,-7.7991,-7.8095,-7.8105,-7.8148,-7.8201,-7.8202,-7.7958,-7.7925,-7.7893,-7.7853,-7.821,-7.8211,-7.8453,-7.8455,-7.8457]}]]